Regional Weather Roundup
Issued by NWS Goodland, KS

Home | Current Version | Previous Version | Graphics & Text | Print | Product List | Glossary On
Versions: 1 2 3 4 5 6 7 8 9 10 11 12 13 14 15 16 17 18 19 20 21 22 23 24 25 26 27 28 29 30 31 32 33 34 35 36 37 38 39 40 41 42 43 44 45 46 47 48 49 50
000
ASUS43 KGLD 181259
RWRGLD

GOODLAND FORECAST AREA HOURLY WEATHER ROUNDUP
NATIONAL WEATHER SERVICE GOODLAND KS
600 AM MST SAT NOV 18 2017

...OFFICIAL OBSERVATIONS...

CITY           SKY/WX    TMP DP  RH WIND       PRES   REMARKS
GOODLAND KS    CLEAR     34  29  82 NW22G31   30.08R
HILL CITY KS   LGT RAIN  39  37  92 N24G33    30.00R
IMPERIAL NEB   CLEAR     35  27  72 NW17G29   30.09R
MCCOOK NEB     MOCLDY    38  35  89 NW20      30.04R
AKRON CO       CLEAR     25  18  74 NW8       30.15R
BURLINGTON CO  PTCLDY    33  25  72 NW23G31   30.12R
LIMON CO       CLEAR     23  19  85 N9        30.16R
$$

...UNOFFICIAL OBSERVATIONS...

CITY           SKY/WX    TMP DP  RH WIND       PRES   REMARKS
LENORA KS        N/A     38  32  79 NW12        N/A
NORTON KS      CLOUDY    37  34  87 NW15G22   30.00
SHARON SPRINGS   N/A     37  30  77 NW26G36     N/A
TRENTON NEB      N/A     35  32  89 NW12        N/A
KIT CARSON CO    N/A     33  23  67 MISG        N/A
YUMA CO        FAIR      32  21  64 NW15G24   30.14R
$$




USA.gov is the U.S. government's official web portal to all federal, state and local government web resources and services.